Regional Weather Roundup
Issued by NWS Charleston, WV

Home | Current Version | Previous Version | Text Only | Print | Product List | Glossary On
Versions: 1 2 3 4 5 6 7 8 9 10 11 12 13 14 15 16 17 18 19 20 21 22 23 24 25 26 27 28 29 30 31 32 33 34 35 36 37 38 39 40 41 42 43 44 45 46 47 48 49 50
000
ASUS41 KRLX 170810
RWRRLX
West Virginia Regional Weather Roundup
National Weather Service Charleston WV
300 AM EST SUN DEC 17 2017

Note: "fair" indicates few or no clouds below 12,000 feet with no
significant weather and/or obstructions to visibility.

WVZ003-170900-
Northern Panhandle of West Virginia

CITY           SKY/WX    TMP DP  RH WIND       PRES   REMARKS
WHEELING       CLEAR     35  25  66 S7        30.17S
$$

WVZ009-170900-
Northwest West Virginia

CITY           SKY/WX    TMP DP  RH WIND       PRES   REMARKS
PARKERSBURG    PTCLDY    36  26  67 S6        30.25R
$$

WVZ006-170900-
Western West Virginia

CITY           SKY/WX    TMP DP  RH WIND       PRES   REMARKS
HUNTINGTON     PTCLDY    37  25  61 S6        30.22S
$$

WVZ015-170900-
West Central West Virginia

CITY           SKY/WX    TMP DP  RH WIND       PRES   REMARKS
CHARLESTON     PTCLDY    30  24  78 CALM      30.24S
$$

WVZ022-031-170900-
North Central West Virginia

CITY           SKY/WX    TMP DP  RH WIND       PRES   REMARKS
CLARKSBURG     CLOUDY    36  24  62 SW5       30.23R
MORGANTOWN     CLOUDY    38  25  59 SW7       30.22R
$$

WVZ025-035-042-045-170900-
Southern West Virginia

CITY           SKY/WX    TMP DP  RH WIND       PRES   REMARKS
BECKLEY        CLOUDY    31  22  69 CALM      30.22R
LOGAN            N/A     37  25  60 CALM      30.22F
BLUEFIELD      CLOUDY    31  21  66 W8        30.22S
LEWISBURG      CLOUDY    26  21  82 CALM      30.23S
$$

WVZ047-170900-
Northern Mountains of West Virginia

CITY           SKY/WX    TMP DP  RH WIND       PRES   REMARKS
ELKINS         CLEAR     27  21  78 CALM      30.23R
$$

WVZ052-170900-
Eastern Panhandle of West Virginia

CITY           SKY/WX    TMP DP  RH WIND       PRES   REMARKS
MARTINSBURG    CLOUDY    25  20  81 SW3       30.21R
PETERSBURG     PTCLDY    26  21  83 E5        30.22S
$$



USA.gov is the U.S. government's official web portal to all federal, state and local government web resources and services.